Regional Weather Roundup
Issued by NWS

Home | Current Version | Previous Version | Text Only | Print | Product List | Glossary Off
Versions: 1 2 3 4 5 6 7 8 9 10 11 12 13 14 15 16 17 18 19 20 21 22 23 24 25 26 27 28 29 30 31 32 33 34 35 36 37 38 39 40 41 42 43 44 45 46 47 48 49 50

000
ASUS43 KMPX 250801
RWRMN
WEATHER ROUNDUP FOR MINNESOTA
NATIONAL WEATHER SERVICE TWIN CITIES/CHANHASSEN MN
300 AM CDT FRI APR 25 2014


NOTE: "FAIR" INDICATES FEW OR NO CLOUDS BELOW 12,000 FEET WITH NO
SIGNIFICANT WEATHER AND/OR OBSTRUCTIONS TO VISIBILITY. N/A MEANS
CURRENT SKY AND/OR WEATHER CONDITIONS ARE NOT AVAILABLE.

MNZ060>063-068>070-250900-
   Twin Cities Metro

CITY           SKY/WX    TMP DP  RH WIND       PRES   REMARKS
TWIN CITIES    PTCLDY    37  37 100 CALM      29.72R FOG
ST PAUL        FOG       33  33 100 CALM      29.73S VSB 1/4
CRYSTAL        CLEAR     34  33  96 CALM      29.70S FOG
BLAINE         FOG       34  34 100 CALM      29.71R VSB 1/4
EDEN PRAIRIE   PTCLDY    37  36  93 W5        29.71S FOG
LAKEVILLE      FOG       30  30 100 CALM      29.71F VSB 1/4
SOUTH ST PAUL  FOG       37  36  96 CALM      29.71F VSB 1
LAKE ELMO      FOG       32  32 100 CALM      29.72S VSB 1/4
$$
MNZ001>005-007-008-013>017-022>024-027-028-250900-
   Northwest Minnesota

CITY           SKY/WX    TMP DP  RH WIND       PRES   REMARKS
BEMIDJI        LGT SNOW  32  32 100 W5        29.67S WCI  27
HALLOCK        MIX PCPN  34  32  93 NE3       29.74S
ROSEAU         LGT RAIN  34  28  80 CALM      29.72S
WARROAD        LGT SNOW  32  28  86 N5        29.72S WCI  27
THIEF RVR FALL CLOUDY    34  30  86 NW3       29.72S
CROOKSTON      FOG       36  36 100 N3        29.73S VSB 1/2
FOSSTON        CLOUDY    32  32 100 CALM      29.70S
DETROIT LAKES  DRZL/FOG  37  37 100 W3        29.70F VSB 1/4
MOORHEAD       FOG       41  41 100 N3        29.73S VSB 3/4
PARK RAPIDS    FOG       33  33 100 SW3       29.67F VSB 1/2
$$
MNZ006-009>011-018-025>026-250900-
   North Central Minnesota

CITY           SKY/WX    TMP DP  RH WIND       PRES   REMARKS
BAUDETTE       LGT SNOW  33  32  96 N5        29.69F FOG     WCI  29
FLAG ISLAND    LGT SNOW  32  30  93 NE6       29.72S WCI  26
INTL FALLS     LGT SNOW  33  31  92 NE6       29.67F FOG     WCI  28
WASKISH        LGT SNOW  34  32  93 CALM      29.68S
BIG FORK       CLOUDY    34  30  86 VRB1      29.65F
LONGVILLE      MIX PCPN  34  32  93 CALM      29.66F
GRAND RAPIDS   CLOUDY    30  28  93 CALM      29.65S VSB 3/4
CRANE LAKE     LGT SNOW  30  30 100 CALM      29.68S VSB 1
ORR            LGT SNOW  32  30  93 CALM      29.63S
COOK           LGT SNOW  32  30  93 CALM      29.65F
$$
MNZ012-019>021-037-250900-
   Northeast Minnesota

CITY           SKY/WX    TMP DP  RH WIND       PRES   REMARKS
DULUTH         FOG       33  31  92 W7        29.65R VSB 1/4 WCI  27
ELY            LGT SNOW  30  30 100 CALM      29.64S
HIBBING        CLOUDY    33  31  92 CALM      29.64F FOG
EVELETH        MIX PCPN  32  32 100 CALM      29.66S
DULUTH HARBOR  CLOUDY    34  30  86 CALM      29.70S
TWO HARBORS    CLOUDY    32  27  80 CALM      29.64R HAZE
SILVER BAY     LGT SNOW  30  30 100 NE7       29.63S WCI  23
GRAND MARAIS     N/A     33  31  92 NE23G30   29.70F WCI  21
G MARAIS ARPRT LGT SNOW  28  27  93 E14G25    29.65F VSB 3/4 WCI  17
$$
MNZ029>031-032-039>041-046>048-054>057-064-250900-
   West Central Minnesota

CITY           SKY/WX    TMP DP  RH WIND       PRES   REMARKS
FERGUS FALLS   CLEAR     36  34  93 NW6       29.69S FOG
WHEATON        CLEAR     41  37  87 W7        29.75S
MORRIS         CLEAR     37  36  93 N9        29.71S
ALEXANDRIA     CLEAR     36  34  92 W6        29.71S
ELBOW LAKE     FAIR      33  33  99 W7        29.71S WCI  27
WADENA         CLOUDY    32  30  93 N5        29.69S FOG     WCI  27
GLENWOOD       FOG       36  34  93 CALM      29.72R VSB 3/4
APPLETON       CLEAR     36  34  93 W6        29.72S
BENSON         CLEAR     36  34  93 CALM      29.72S
ORTONVILLE     CLEAR     43  36  75 NW7       29.72S
MADISON        CLEAR     45  39  81 W6        29.72S
WILLMAR        FAIR      37  34  87 NW3       29.73S
$$
MNZ033>034-036-042>043-049>051-058-059-250900-
   Central Minnesota

CITY           SKY/WX    TMP DP  RH WIND       PRES   REMARKS
ST CLOUD       FOG       32  30  92 CALM      29.71S VSB 1/4
SAUK CENTRE    FAIR      33  33  99 SW3       29.72R FOG
PAYNESVILLE    CLEAR     33  33  98 CALM      29.73S
AITKIN         CLOUDY    37  32  81 SW5       29.66F HAZE
PINE RIVER     CLOUDY    34  34 100 SW3       29.71F FOG
BRAINERD       HAZE      40  35  83 W3        29.68F VSB 1/2
STAPLES        FOG       34  34 100 CALM      29.69F VSB 1/4
LONG PRAIRIE   FAIR      34  34 100 CALM      29.70F
LITTLE FALLS   FOG       30  30 100 CALM      29.70S VSB 1/4
LITCHFIELD     CLEAR     39  39 100 NW5       29.73R
BUFFALO        CLEAR     38  36  94 W5        29.72S FOG
MAPLE LAKE     CLEAR     39  39  99 W7        29.73R
$$
MNZ037-044-045-052-053-250900-
   East Central Minnesota

CITY           SKY/WX    TMP DP  RH WIND       PRES   REMARKS
PRINCETON      FOG       34  32  93 CALM      29.71F VSB 1/4
MORA           CLOUDY    36  34  93 CALM      29.71F FOG
CAMBRIDGE      MOCLDY    37  32  81 CALM      29.69S HAZE
RUSH CITY      CLOUDY    37  35  95 CALM      29.71S
MOOSE LAKE     FOG       32  32 100 CALM      29.67S VSB 3/4
HINCKLEY       CLOUDY    37  37 100 W5        29.69F FOG
CLOQUET        FOG       32  30  93 CALM      29.66F VSB 3/4
MCGREGOR       CLOUDY    34  34 100 SW3       29.67F
$$
MNZ071>073-080-081-089-090-097-098-250900-
   Southwest Minnesota

CITY           SKY/WX    TMP DP  RH WIND       PRES   REMARKS
MONTEVIDEO     CLEAR     39  39 100 W5        29.73S
GRANITE FALLS  CLEAR     38  36  90 SW7       29.74S
CANBY          CLEAR     43  38  85 SW13      29.74F
MARSHALL       CLEAR     43  36  75 SW15      29.72S
REDWOOD FALLS  CLEAR     43  39  86 SW13      29.71F
OLIVIA         CLEAR     37  36  93 SW6       29.71F
PIPESTONE      PTCLDY    39  36  87 SW3       29.75S
WINDOM         CLEAR     39  37  93 SW5       29.75S
WORTHINGTON    CLEAR     43  36  75 SW9       29.77S
JACKSON        CLEAR     41  37  87 SW9       29.76S
TRACY          CLEAR     43  39  87 SW10      29.73F
SLAYTON        CLEAR     42  38  86 SW10      29.75S
$$
MNZ065>067-074>077-082>085-091>093-250900-
   South Central Minnesota

CITY           SKY/WX    TMP DP  RH WIND       PRES   REMARKS
MANKATO        CLEAR     39  37  93 SW7       29.73F
NEW ULM        CLEAR     39  39 100 SW8       29.72F
ST JAMES       CLEAR     39  36  87 S3        29.75S
FAIRMONT       CLEAR     41  36  81 SW8       29.76F
GLENCOE        CLEAR     37  34  90 SW5       29.70F FOG
FARIBAULT      HAZE      37  32  81 S3        29.73F VSB 1/2
OWATONNA       CLEAR     37  37 100 CALM      29.73F FOG
WASECA         FOG       34  32  93 CALM      29.75F VSB 1/4
ALBERT LEA     FOG       37  37 100 CALM      29.74S VSB 1/4
$$
MNZ078>079-086>088-094>096-250900-
   Southeast Minnesota

CITY           SKY/WX    TMP DP  RH WIND       PRES   REMARKS
ROCHESTER      LGT RAIN  35  33  92 SW7       29.73F FOG     WCI  29
RED WING         N/A     34  32  93 NW3       29.72S FOG
STANTON        CLEAR     35  33  92 SW5       29.71F FOG     WCI  31
DODGE CENTER   FOG       36  36 100 SW6       29.73S VSB<1/4
WINONA         PTCLDY    39  37  93 CALM      29.74R
AUSTIN         FOG       34  34 100 CALM      29.74S VSB<1/4
PRESTON        CLEAR     37  36  95 NW5       29.75R
$$
ABBREVIATIONS USED IN REMARKS
   TC - TEMPERATURES IN CELSIUS
  WCI - WIND CHILL INDEX
   HX - HEAT INDEX
  VSB - VISIBILITY
$$


USA.gov is the U.S. government's official web portal to all federal, state and local government web resources and services.